Simultaneous Nadir Overpasses (SNOs) Predictions

Prediction of SNOs between GOES-14 and AQUA Satellite Orbit:

Table of predicted SNOs for the next 14.0 days since TLE Epoch: 3/30/2024
Index Date Time (GOES-14) GOES-14 Lat,Lon AQUA Lat,Lon Distance(km) Time Diff (sec)
1 03/31/2024 21:04:55 -0.16,-108.51 0.68,-104.72 432.43 80
2 04/01/2024 09:25:12 0.16,-108.50 0.39,-109.62 127.48 80
3 04/03/2024 09:06:35 0.17,-108.50 -0.43,-105.72 315.83 80
4 04/03/2024 21:27:00 -0.16,-108.51 -0.61,-110.67 245.35 80
5 04/05/2024 21:13:42 -0.17,-108.51 0.18,-106.75 199.01 80
6 04/06/2024 09:33:58 0.17,-108.50 0.85,-111.67 359.74 80
7 04/08/2024 09:15:19 0.17,-108.51 -0.01,-107.76 85.10 80
8 04/08/2024 21:35:43 -0.17,-108.51 -1.09,-112.69 476.61 80
9 04/10/2024 21:19:43 -0.17,-108.51 -0.19,-108.79 31.28 80
10 04/12/2024 21:06:20 -0.17,-108.51 0.58,-104.86 414.66 80
